GALAXY 3C (G-3C)

Last updated on Tue Sep 22 2026 00:03:10 GMT+0000 (Coordinated Universal Time)

1 27445U 02030A 26264.51291292 -.00000155 00000+0 00000+0 0 9998 2 27445 3.9833 76.7585 0001603 44.0133 329.4406 1.00272410 47469
UTC large
Height (km)
Speed (km/s)
/
Latitude / Longitude
Inclination (degrees)
Orbital Period (minutes)
Azimuth
Elevation
Range (km)
Doppler Factor

Next 0 passes for location: London (51.5072 / 0.1276)

No passes found over London.
GALAXY 3C (G-3C)